This is the latest recevied weather packets stored in our database for station/object WX5HOT. If no packets are shown the sender has not sent any weather packets the latest 1 day(s).
| Time | Temp. | Humidity | Pressure | Rain* | Wind** | Luminosity | Snow |
|---|---|---|---|---|---|---|---|
| 1778027259 | 20.56° C | 99% | 1056.9 hPa | 0 mm | 1.34 m/s, 180° | 15 W/m² | - |
| 1778026955 | 20.56° C | 99% | 1057.1 hPa | 0 mm | 1.34 m/s, 181° | 26 W/m² | - |
| 1778026651 | 20.56° C | 99% | 1057 hPa | 0 mm | 0.89 m/s, 194° | 24 W/m² | - |
| 1778026349 | 20.56° C | 99% | 1056.6 hPa | 0 mm | 0.89 m/s, 191° | 35 W/m² | - |
| 1778026045 | 20.56° C | 99% | 1056.6 hPa | 0 mm | 1.34 m/s, 182° | 49 W/m² | - |
| 1778025743 | 20.56° C | 99% | 1056.8 hPa | 0 mm | 1.34 m/s, 186° | 45 W/m² | - |
| 1778025440 | 20.56° C | 99% | 1056.6 hPa | 0 mm | 1.34 m/s, 184° | 36 W/m² | - |
| 1778025138 | 20.56° C | 99% | 1056.6 hPa | 0 mm | 1.34 m/s, 179° | 45 W/m² | - |
| 1778024834 | 20.56° C | 99% | 1056.5 hPa | 0 mm | 0.89 m/s, 183° | 18 W/m² | - |
| 1778024532 | 20.56° C | 99% | 1056.5 hPa | 0 mm | 1.34 m/s, 183° | 26 W/m² | - |
| 1778024228 | 20.56° C | 99% | 1056.7 hPa | 0 mm | 0.89 m/s, 186° | 51 W/m² | - |
| 1778023926 | 20.56° C | 99% | 1056.8 hPa | 0 mm | 1.34 m/s, 184° | 101 W/m² | - |
| 1778023623 | 20.56° C | 99% | 1056.8 hPa | 0 mm | 1.34 m/s, 180° | 76 W/m² | - |
| 1778023321 | 20.56° C | 99% | 1056.6 hPa | 0 mm | 1.34 m/s, 185° | 84 W/m² | - |
| 1778023017 | 20.56° C | 99% | 1056.5 hPa | 0 mm | 1.34 m/s, 189° | 89 W/m² | - |
| 1778022716 | 20.56° C | 99% | 1056.4 hPa | 0 mm | 1.34 m/s, 180° | 57 W/m² | - |
| 1778022414 | 20.56° C | 99% | 1056.1 hPa | 0 mm | 1.34 m/s, 180° | 87 W/m² | - |
| 1778022110 | 20.56° C | 99% | 1056.3 hPa | 0 mm | 1.34 m/s, 186° | 69 W/m² | - |
| 1778021806 | 20.56° C | 99% | 1056.1 hPa | 0 mm | 0.89 m/s, 188° | 86 W/m² | - |
| 1778021503 | 20.56° C | 99% | 1056.1 hPa | 0 mm | 1.79 m/s, 185° | 95 W/m² | - |
| 1778021199 | 20.56° C | 99% | 1056.4 hPa | 0 mm | 1.79 m/s, 185° | 116 W/m² | - |
| 1778020897 | 20.56° C | 99% | 1056.5 hPa | 0 mm | 0.89 m/s, 190° | 130 W/m² | - |
| 1778020594 | 20° C | 99% | 1056.4 hPa | 0 mm | 1.34 m/s, 175° | 141 W/m² | - |
| 1778020290 | 20° C | 99% | 1056 hPa | 0 mm | 2.24 m/s, 184° | 145 W/m² | - |
| 1778019986 | 20° C | 99% | 1055.9 hPa | 0 mm | 2.24 m/s, 170° | 124 W/m² | - |
* Rain latest hour (hover to see other rain measurements)
** Current wind speed in m/s (hover to see current wind gust speed)